This demonstration page uses our WeatherBlox Daily Observations layout. Learn more.

38.80484, -77.04692

Hourly Observations for May 22, 2020

Temp ( °F °C ) Dew Point ( °F °C ) Humidity (%) Winds ( mph kmh ) Pressure ( in mb ) Visibility ( mi km ) Precip ( " mm )
12:52 am 00:52 Cloudy 63 17.2 57 13.9 81 81 ENE 8 13 30.2 1023 10 16.0934 0 0
1:14 am 01:14 Cloudy 63 17.2 57 13.9 81 81 ENE 8 13 30.2 1023 10 16.0934 0 0
1:52 am 01:52 Cloudy 63 17.2 57 13.9 81 81 ENE 9 15 30.18 1022 10 16.0934 0 0
2:52 am 02:52 Cloudy 62 16.7 56 13.3 80 80 ENE 8 13 30.16 1022 10 16.0934 0 0
3:32 am 03:32 Cloudy 62 16.7 57 13.9 84 84 ENE 9 15 30.15 1021 10 16.0934 0 0
3:52 am 03:52 Cloudy 62 16.7 57 13.9 84 84 ENE 7 11 30.14 1021 10 16.0934 0 0
4:43 am 04:43 Cloudy with Rain 60 15.6 58 14.4 93 93 NE 10 17 30.13 1020 2 3.21868 0.01 0.254
4:52 am 04:52 Cloudy with Rain 60 15.6 58 14.4 93 93 NE 13 20 30.12 1020 2.5 4.02335 0.08 2.032
4:55 am 04:55 Cloudy with Light Rain 60 15.6 58 14.4 93 93 ENE 12 19 30.13 1020 3 4.82802 0.001 0.001
5:12 am 05:12 Cloudy with Light Rain 60 15.6 59 15 96 96 NE 10 17 30.13 1020 7 11.26538 0.02 0.508
5:22 am 05:22 Cloudy with Light Rain 60 15.6 59 15 96 96 NE 9 15 30.12 1020 9 14.48406 0.02 0.508
5:52 am 05:52 Cloudy 60 15.6 59 15 96 96 NE 9 15 30.11 1020 10 16.0934 0.02 0.508
6:02 am 06:02 Cloudy 61 16.1 59 15 93 93 NE 8 13 30.12 1020 10 16.0934 0 0
6:28 am 06:28 Cloudy with Light Rain 61 16.1 59 15 93 93 NE 7 11 30.12 1020 7 11.26538 0.001 0.001
6:52 am 06:52 Cloudy with Light Rain 61 16.1 60 15.6 97 97 NNE 8 13 30.11 1020 8 12.87472 0.001 0.001
7:52 am 07:52 Cloudy with Rain 62 16.7 60 15.6 93 93 NNE 6 9 30.1 1019 3 4.82802 0.04 1.016
8:52 am 08:52 Cloudy with Rain 63 17.2 61 16.1 93 93 NE 7 11 30.1 1019 2.5 4.02335 0.13 3.302
9:03 am 09:03 Cloudy with Rain 63 17.2 62 16.7 97 97 NE 8 13 30.1 1019 3 4.82802 0.03 0.762
9:07 am 09:07 Cloudy with Heavy Rain 63 17.2 62 16.7 97 97 NE 8 13 30.1 1019 2 3.21868 0.05 1.27
9:17 am 09:17 Cloudy with Rain 63 17.2 62 16.7 97 97 NE 7 11 30.1 1019 3 4.82802 0.12 3.048
9:35 am 09:35 Cloudy with Rain 63 17.2 62 16.7 97 97 NE 6 9 30.09 1019 1.5 2.41401 0.17 4.318
9:43 am 09:43 Cloudy with Light Rain 63 17.2 63 17.2 100 100 NNE 6 9 30.09 1019 4 6.43736 0.25 6.35
9:52 am 09:52 Cloudy with Light Rain 64 17.8 63 17.2 96 96 N 5 7 30.09 1019 8 12.87472 0.25 6.35
10:06 am 10:06 Cloudy 64 17.8 63 17.2 96 96 N 5 7 30.08 1019 10 16.0934 0.001 0.001
10:25 am 10:25 Cloudy 65 18.3 64 17.8 97 97 NE 5 7 30.08 1019 10 16.0934 0.001 0.001
10:52 am 10:52 Cloudy 67 19.4 65 18.3 93 93 E 7 11 30.07 1018 10 16.0934 0.001 0.001
11:41 am 11:41 Cloudy with Light Rain 67 19.4 65 18.3 93 93 E 5 7 30.06 1018 3 4.82802 0.001 0.001
11:52 am 11:52 Cloudy with Light Rain 67 19.4 66 18.9 97 97 ENE 3 6 30.05 1018 2.5 4.02335 0.001 0.001
11:57 am 11:57 Cloudy with Light Rain 67 19.4 66 18.9 97 97 E 5 7 30.06 1018 1.5 2.41401 0.001 0.001
12:10 pm 12:10 Cloudy with Light Rain 67 19.4 66 18.9 97 97 Calm 30.06 1018 2 3.21868 0.02 0.508
12:21 pm 12:21 Cloudy with Light Rain 68 20 67 19.4 96 96 Calm 30.05 1018 3 4.82802 0.03 0.762
12:32 pm 12:32 Cloudy with Mist and Fog 68 20 67 19.4 96 96 NE 3 6 30.05 1018 5 8.0467 0.03 0.762
12:52 pm 12:52 Cloudy with Mist and Fog 68 20 67 19.4 96 96 Calm 30.04 1017 6 9.65604 0.03 0.762
1:01 pm 13:01 Cloudy with Light Rain 69 20.6 67 19.4 93 93 SSE 5 7 30.04 1017 1.5 2.41401 0.001 0.001
1:19 pm 13:19 Cloudy with Light Rain 69 20.6 67 19.4 93 93 S 5 7 30.04 1017 2 3.21868 0.02 0.508
1:52 pm 13:52 Cloudy with Light Drizzle 69 20.6 68 20 96 96 S 6 9 30.03 1017 1.5 2.41401 0.03 0.762
2:04 pm 14:04 Cloudy with Light Drizzle 70 21.1 69 20.6 97 97 S 7 11 30.04 1017 2 3.21868 0.001 0.001
2:10 pm 14:10 Cloudy with Mist and Fog 70 21.1 69 20.6 97 97 S 7 11 30.04 1017 3 4.82802 0.001 0.001
2:24 pm 14:24 Mostly Cloudy 71 21.7 69 20.6 94 94 S 5 7 30.03 1017 10 16.0934 0.001 0.001
2:52 pm 14:52 Partly Cloudy 73 22.8 69 20.6 87 87 S 6 9 30.02 1017 10 16.0934 0.001 0.001
3:52 pm 15:52 Partly Cloudy 76 24.4 68 20 77 77 Calm 29.99 1016 10 16.0934 0 0
4:52 pm 16:52 Mostly Cloudy 76 24.4 67 19.4 74 74 E 5 7 29.98 1015 10 16.0934 0 0
5:52 pm 17:52 Mostly Cloudy 77 25 64 17.8 64 64 Calm 29.98 1015 10 16.0934 0 0
6:52 pm 18:52 Mostly Cloudy 74 23.3 66 18.9 76 76 N 5 7 29.97 1015 10 16.0934 0 0
7:52 pm 19:52 Mostly Cloudy 73 22.8 66 18.9 79 79 NNW 8 13 29.98 1015 10 16.0934 0 0
8:52 pm 20:52 Mostly Cloudy 71 21.7 65 18.3 81 81 NNW 7 11 29.98 1015 10 16.0934 0 0
9:52 pm 21:52 Cloudy 70 21.1 65 18.3 84 84 NNW 6 9 29.99 1016 10 16.0934 0 0
10:52 pm 22:52 Cloudy 69 20.6 65 18.3 87 87 NNW 7 11 29.99 1016 10 16.0934 0 0
11:52 pm 23:52 Cloudy 69 20.6 65 18.3 87 87 NNW 3 6 30 1016 10 16.0934 0 0

Powered by AerisWeather